Skip Page Navigation
NASA JPL Caltech
NASA Logo - Jet Propulsion Laboratory + View the NASA Portal
+ Center for Near-Earth Object Studies
JPL Home Earth Solar System Stars & Galaxies Technology
JPL Solar System Dynamics
BODIES ORBITS EPHEMERIDES TOOLS PHYSICAL DATA DISCOVERY FAQ SITE MAP
IMPORTANT: The SSD Announcement email list is now available. Major changes are coming in the near future, including possible hostname and/or URL changes. To be notified of such changes, subscribe to this email list.

Please visit this page for more details.


JPL Small-Body Database Browser
Search: [ help ]  
250680 (2005 QC5)
Classification: Aten [NEO, PHA]          SPK-ID: 2250680
Ephemeris | Orbit Diagram | Orbital Elements | Mission Design | Physical Parameters | Discovery Circumstances | Close-Approach Data ]

[ hide orbit diagram ]

For accurate long-term ephemerides, please instead use our Horizons system.This orbit viewer was implemented using two-body methods, and hence should not be used for determining accurate long-term trajectories (over several years or decades) or planetary encounter circumstances.


[ revert to old Java-based viewer ]

Orbital Elements at Epoch 2458600.5 (2019-Apr-27.0) TDB
Reference: JPL 32 (heliocentric ecliptic J2000)
 Element Value Uncertainty (1-sigma)   Units 
e .3645045177787244 2.0196e-07  
a .8931282994275921 2.455e-09 au
q .5675789993302054 1.8119e-07 au
i 9.450120044025704 1.2886e-05 deg
node 48.10107028591386 6.0137e-05 deg
peri 108.6842332319885 6.8732e-05 deg
M 248.9405630847926 3.5499e-05 deg
tp 2458695.609121256149
(2019-Jul-31.10912126)
3.0378e-05 TDB
period 308.2969318343913
0.84
1.2711e-06
3.48e-09
d
yr
n 1.167705425603724 4.8146e-09 deg/d
Q 1.218677599524979 3.3498e-09 au
  Orbit Determination Parameters
   # obs. used (total)      102  
   data-arc span      14195 days (38.86 yr)  
   first obs. used      1978-09-24  
   last obs. used      2017-08-05  
   planetary ephem.      DE431  
   SB-pert. ephem.      SB431-N16  
   condition code      0  
   norm. resid. RMS      .51046  
   source      ORB  
   producer      Otto Matic  
   solution date      2018-Oct-04 09:59:55  

Additional Information
 Earth MOID = .0476432 au 
 Jupiter MOID = 3.78011 au 
 T_jup = 6.587 
[ show covariance matrix ]

Ephemeris | Orbit Diagram | Orbital Elements | Mission Design | Physical Parameters | Discovery Circumstances | Close-Approach Data ]

Physical Parameter Table
Parameter Symbol Value Units Sigma Reference Notes
absolute magnitude H 19.7   n/a MPO418338  
diameter diameter 0.398 km 0.007 urn:nasa:pds:neowise_diameters_albedos::2.0[neos] (http://adsabs.harvard.edu/abs/2011ApJ...743..156M)  
geometric albedo albedo 0.147   0.027 urn:nasa:pds:neowise_diameters_albedos::2.0[neos] (http://adsabs.harvard.edu/abs/2011ApJ...743..156M)  

250680 (2005 QC5)          Discovered 2005-Aug-26 by Siding Spring Survey at Siding Spring
Reference: 20100923/Numbers.arcLast Updated: 2010-09-27

[ show close-approach data ]
Ephemeris | Orbit Diagram | Orbital Elements | Mission Design | Physical Parameters | Discovery Circumstances | Close-Approach Data ]
ABOUT SSD CREDITS/AWARDS PRIVACY/COPYRIGHT GLOSSARY LINKS
FirstGov
(server date/time)  
NASA Home Page
Site Manager:   Ryan S. Park
Webmaster  Alan B. Chamberlin